EZY505L EBCI-EGBB

Flight info

Callsign EZY505L
Flight time N/A
Altitude 38000
Route CIV UY50 LUMEN L610 LAM DCT SILVA
Aircraft A320/M-SDE3FGHIRWY/LB1

Departure

Time 2026-05-05 08:51
Airport Brussels South Charleroi Airport (EBCI)

Arrival

Time N/A
Airport Birmingham Airport (EGBB)
Time Latitude Longitude Altitude Speed Heading
2026-05-05 08:24 50.46012 4.46084 598 ft 0 kts 288°
2026-05-05 08:44 50.46012 4.46083 598 ft 1 kts 288°
2026-05-05 08:44 50.46038 4.46046 597 ft 6 kts 354°
2026-05-05 08:45 50.46069 4.46099 596 ft 7 kts 65°
2026-05-05 08:45 50.46090 4.46173 595 ft 8 kts 66°
2026-05-05 08:45 50.46114 4.46238 595 ft 6 kts 44°
2026-05-05 08:45 50.46155 4.46247 594 ft 6 kts 340°
2026-05-05 08:46 50.46160 4.46243 594 ft 0 kts 336°
2026-05-05 08:46 50.46169 4.46237 593 ft 8 kts 336°
2026-05-05 08:47 50.46251 4.46176 590 ft 16 kts 333°
2026-05-05 08:47 50.46338 4.46110 591 ft 8 kts 335°
2026-05-05 08:47 50.46381 4.46097 592 ft 9 kts 14°
2026-05-05 08:47 50.46442 4.46233 591 ft 19 kts 65°
2026-05-05 08:48 50.46495 4.46417 589 ft 18 kts 65°
2026-05-05 08:48 50.46545 4.46591 591 ft 18 kts 65°
2026-05-05 08:48 50.46598 4.46773 592 ft 19 kts 65°
2026-05-05 08:48 50.46652 4.46954 594 ft 18 kts 65°
2026-05-05 08:49 50.46709 4.47155 592 ft 22 kts 66°
2026-05-05 08:49 50.46775 4.47380 589 ft 24 kts 65°
2026-05-05 08:49 50.46838 4.47605 591 ft 14 kts 78°
2026-05-05 08:49 50.46793 4.47692 595 ft 9 kts 155°
2026-05-05 08:50 50.46713 4.47724 594 ft 14 kts 195°
2026-05-05 08:50 50.46662 4.47619 593 ft 6 kts 246°
2026-05-05 08:50 50.46657 4.47599 593 ft 0 kts 246°
2026-05-05 08:50 50.46639 4.47536 595 ft 33 kts 246°
2026-05-05 08:51 50.46431 4.46822 594 ft 107 kts 246°
2026-05-05 08:51 50.46041 4.45474 597 ft 161 kts 246°
2026-05-05 08:51 50.45568 4.43813 1150 ft 167 kts 245°
2026-05-05 08:51 50.45081 4.42147 1871 ft 169 kts 245°
2026-05-05 08:52 50.44578 4.40464 2576 ft 171 kts 244°
2026-05-05 08:52 50.44060 4.38724 3020 ft 188 kts 246°
2026-05-05 08:52 50.43488 4.36704 3348 ft 213 kts 246°
2026-05-05 08:52 50.42855 4.34458 3773 ft 238 kts 246°
2026-05-05 08:53 50.42143 4.31941 4003 ft 264 kts 246°
2026-05-05 08:53 50.41489 4.29384 4509 ft 275 kts 256°
2026-05-05 08:53 50.41247 4.26385 5602 ft 275 kts 272°
2026-05-05 08:53 50.41561 4.23432 6546 ft 278 kts 290°
2026-05-05 08:54 50.42425 4.20718 7454 ft 280 kts 304°
2026-05-05 08:54 50.43466 4.18157 8347 ft 284 kts 303°
2026-05-05 08:54 50.44530 4.15517 9228 ft 288 kts 303°
2026-05-05 08:54 50.45609 4.12834 10087 ft 293 kts 303°
2026-05-05 08:55 50.46741 4.10020 10467 ft 317 kts 303°
2026-05-05 08:55 50.47945 4.07021 10999 ft 330 kts 302°
2026-05-05 08:55 50.49178 4.03934 11781 ft 336 kts 302°
2026-05-05 08:55 50.50423 4.00807 12578 ft 340 kts 302°
2026-05-05 08:56 50.51678 3.97645 13342 ft 343 kts 302°
2026-05-05 08:56 50.51974 3.96898 13518 ft 344 kts 302°
2026-05-05 08:56 50.52236 3.96239 13672 ft 345 kts 302°
2026-05-05 08:56 50.53509 3.93029 14403 ft 348 kts 302°
2026-05-05 08:57 50.54795 3.89794 15099 ft 352 kts 302°
2026-05-05 08:57 50.56206 3.86628 15763 ft 356 kts 310°
2026-05-05 08:57 50.57353 3.84772 16197 ft 358 kts 318°
2026-05-05 08:57 50.59378 3.82452 16855 ft 363 kts 329°
2026-05-05 08:58 50.61686 3.80800 17498 ft 367 kts 340°
2026-05-05 08:58 50.64097 3.79436 18137 ft 370 kts 340°
2026-05-05 08:58 50.66531 3.78045 18752 ft 374 kts 339°
2026-05-05 08:58 50.68982 3.76631 19350 ft 377 kts 339°
2026-05-05 08:59 50.71452 3.75200 19933 ft 380 kts 339°
2026-05-05 08:59 50.73951 3.73756 20501 ft 384 kts 339°
2026-05-05 08:59 50.76472 3.72297 21063 ft 387 kts 339°
2026-05-05 08:59 50.79008 3.70823 21617 ft 390 kts 339°
2026-05-05 09:00 50.81565 3.69338 22115 ft 393 kts 339°
2026-05-05 09:00 50.84142 3.67840 22626 ft 396 kts 339°
2026-05-05 09:00 50.86740 3.66329 23131 ft 399 kts 339°
2026-05-05 09:00 50.89354 3.64811 23613 ft 402 kts 339°
2026-05-05 09:01 50.91989 3.63276 24087 ft 405 kts 339°
2026-05-05 09:01 50.94627 3.61672 24533 ft 407 kts 337°
2026-05-05 09:01 50.97264 3.59990 24974 ft 410 kts 336°
2026-05-05 09:01 50.99914 3.58257 25416 ft 413 kts 336°
2026-05-05 09:02 51.02571 3.56507 25838 ft 415 kts 336°
2026-05-05 09:02 51.05249 3.54748 26256 ft 417 kts 336°
2026-05-05 09:02 51.07937 3.52983 26665 ft 420 kts 336°
2026-05-05 09:02 51.10649 3.51212 27062 ft 422 kts 336°
2026-05-05 09:03 51.13379 3.49448 27438 ft 424 kts 336°
2026-05-05 09:03 51.16123 3.47677 27826 ft 427 kts 336°
2026-05-05 09:03 51.18878 3.45897 28196 ft 429 kts 336°
2026-05-05 09:03 51.21527 3.43727 28551 ft 429 kts 325°
2026-05-05 09:04 51.23874 3.40797 28903 ft 429 kts 315°
2026-05-05 09:04 51.25849 3.37242 29241 ft 429 kts 304°
2026-05-05 09:04 51.27399 3.33173 29562 ft 429 kts 294°
2026-05-05 09:04 51.28458 3.28724 29904 ft 429 kts 284°
2026-05-05 09:05 51.29101 3.24059 30223 ft 430 kts 280°
2026-05-05 09:05 51.29700 3.19362 30532 ft 432 kts 280°
2026-05-05 09:05 51.30297 3.14648 30825 ft 434 kts 280°
2026-05-05 09:05 51.30885 3.09963 31105 ft 436 kts 280°
2026-05-05 09:06 51.31489 3.05137 31386 ft 438 kts 280°
2026-05-05 09:06 51.32081 3.00427 31710 ft 439 kts 280°
2026-05-05 09:06 51.32685 2.95647 32108 ft 438 kts 280°
2026-05-05 09:06 51.33285 2.90882 32477 ft 437 kts 280°
2026-05-05 09:07 51.33881 2.86127 32827 ft 436 kts 280°
2026-05-05 09:07 51.34476 2.81364 33185 ft 436 kts 280°
2026-05-05 09:07 51.35060 2.76611 33536 ft 435 kts 280°
2026-05-05 09:07 51.35640 2.71919 33862 ft 435 kts 280°
2026-05-05 09:08 51.36228 2.67174 34202 ft 435 kts 280°
2026-05-05 09:08 51.36813 2.62423 34521 ft 435 kts 280°
2026-05-05 09:08 51.37394 2.57679 34811 ft 435 kts 280°
2026-05-05 09:08 51.37973 2.52930 35094 ft 435 kts 280°
2026-05-05 09:09 51.38553 2.48167 35373 ft 435 kts 280°
2026-05-05 09:09 51.39133 2.43413 35643 ft 436 kts 280°
2026-05-05 09:09 51.39713 2.38652 35898 ft 436 kts 280°
2026-05-05 09:09 51.40283 2.33887 36148 ft 436 kts 279°
2026-05-05 09:10 51.40850 2.29119 36378 ft 436 kts 280°
2026-05-05 09:10 51.41421 2.24340 36602 ft 437 kts 280°
2026-05-05 09:10 51.41996 2.19564 36867 ft 436 kts 280°
2026-05-05 09:10 51.42580 2.14820 37223 ft 432 kts 280°
2026-05-05 09:11 51.43165 2.10104 37518 ft 431 kts 280°
2026-05-05 09:11 51.43746 2.05400 37734 ft 430 kts 280°
2026-05-05 09:11 51.44317 2.00688 37912 ft 431 kts 280°
2026-05-05 09:12 51.45437 1.91250 37966 ft 430 kts 280°
2026-05-05 09:12 51.46539 1.81806 37980 ft 430 kts 280°
2026-05-05 09:13 51.47623 1.72382 37981 ft 430 kts 279°
2026-05-05 09:13 51.48699 1.62943 37980 ft 430 kts 279°
2026-05-05 09:14 51.49772 1.53547 37979 ft 430 kts 279°
2026-05-05 09:14 51.50845 1.44099 37983 ft 430 kts 279°
2026-05-05 09:15 51.51906 1.34626 37986 ft 431 kts 279°
2026-05-05 09:15 51.52959 1.25161 37987 ft 431 kts 279°
2026-05-05 09:16 51.54001 1.15672 37986 ft 431 kts 279°